Weather History for CYUS - September, 2012

Change the Weather History Date:

Tuesday, September 4, 2012

  Actual Average Record
Temperature  
Mean Temperature 40 °F -  
Max Temperature 48 °F - - ()
Min Temperature 33 °F - - ()
Degree Days  
Heating Degree Days 24    
Moisture  
Dew Point -    
Average Humidity    
Maximum Humidity    
Minimum Humidity    
Precipitation  
Precipitation 0.00 in - - ()
Sea Level Pressure  
Sea Level Pressure 29.86 in    
Wind  
Wind Speed 13 mph ()    
Max Wind Speed 24 mph    
Max Gust Speed 28 mph    
Visibility 7.2 miles    
Events Rain    
T = Trace of Precipitation, MM = Missing Value Source: Averaged Metar Reports

Daily Weather History Graph

Daily Weather History Graph

Search for Another Location

Airport or City:

Trip Planner

Search our weather history database for the weather conditions in past years. The results will help you decide how hot, cold, wet, or windy it might be!

Date:

Astronomy

Sep. 04, 2012 Rise Set
Actual Time 5:49 AM CDT 8:33 PM CDT
Civil Twilight 4:43 AM CDT 9:38 PM CDT
Nautical Twilight 2:58 AM CDT 11:19 PM CDT
Astronomical Twilight Sun does not rise Sun does not rise
Moon 7:29 PM CDT (9/4) 12:47 PM CDT (9/4)
Length of Visible Light 16h 54m
Length of Day
14h 43m
Waning Gibbous, 83% of the Moon is Illuminated
Sep 4
Waning Gibbous
Sep 8
Last Quarter
Sep 15
New
Sep 22
First Quarter
Sep 29
Full

Hourly Weather History & Observations

Time (CDT) Temp. Windchill Dew Point Humidity Pressure Visibility Wind Dir Wind Speed Gust Speed Precip Events Conditions
12:00 AM 46.4 °F 38.5 °F - N/A% 29.74 in 9.0 mi SW 21.9 mph 27.6 mph N/A   Scattered Clouds
1:00 AM 48 °F - - %  in 9 mi SW 23.0 mph - -  
1:00 AM 48.2 °F - - N/A% 29.74 in 9.0 mi SW 24.2 mph - N/A   Mostly Cloudy
1:58 AM 48.2 °F - - N/A% 29.74 in 9.0 mi SW 19.6 mph - N/A   Overcast
2:00 AM 48.2 °F - - N/A% 29.74 in 9.0 mi SW 18.4 mph 24.2 mph N/A   Overcast
2:11 AM 48.2 °F - - N/A% 29.74 in 9.0 mi SW 18.4 mph 24.2 mph N/A   Overcast
2:13 AM 48.2 °F - - N/A% 29.74 in 9.0 mi SW 19.6 mph - N/A Rain Light Rain
2:41 AM 46.4 °F 40.1 °F - N/A% 29.75 in 2.1 mi SW 15.0 mph - N/A Rain Rain
2:43 AM 46.4 °F 40.4 °F - N/A% 29.75 in 1.2 mi SW 13.8 mph - N/A Rain Rain
2:44 AM 46.4 °F 40.4 °F - N/A% 29.75 in 1.1 mi SW 13.8 mph - N/A Rain Rain
2:48 AM 46.4 °F 40.1 °F - N/A% 29.75 in 1.0 mi SW 15.0 mph - N/A Rain Rain
2:53 AM 46.4 °F 40.1 °F - N/A% 29.75 in 1.5 mi SW 15.0 mph - N/A Rain Heavy Rain
3:00 AM 46.4 °F 40.1 °F - N/A% 29.74 in 2.4 mi SW 15.0 mph - N/A Rain Rain
3:06 AM 46.4 °F 41.1 °F - N/A% 29.75 in 2.1 mi SW 11.5 mph 18.4 mph N/A Rain Rain
3:12 AM 44.6 °F 39.7 °F - N/A% 29.74 in 2.4 mi WSW 9.2 mph - N/A Rain Rain
3:14 AM 44.6 °F 39.2 °F - N/A% 29.74 in 2.0 mi WSW 10.4 mph - N/A Rain Rain
3:17 AM 44.6 °F 39.7 °F - N/A% 29.74 in 1.5 mi WSW 9.2 mph - N/A Rain Rain
3:20 AM 44.6 °F 39.7 °F - N/A% 29.74 in 1.4 mi WSW 9.2 mph - N/A Rain Rain
3:23 AM 44.6 °F 40.2 °F - N/A% 29.75 in 1.2 mi WSW 8.1 mph - N/A Rain Rain
3:28 AM 44.6 °F 40.2 °F - N/A% 29.75 in 1.4 mi WSW 8.1 mph - N/A Rain Rain
3:30 AM 44.6 °F 40.2 °F - N/A% 29.75 in 3.0 mi WSW 8.1 mph - N/A Rain Rain
3:32 AM 44.6 °F 41.4 °F - N/A% 29.75 in 4.0 mi WSW 5.8 mph - N/A Rain Light Rain
3:39 AM 44.6 °F 39.7 °F - N/A% 29.75 in 4.0 mi WSW 9.2 mph 20.7 mph N/A Rain Light Rain
3:51 AM 44.6 °F 40.7 °F - N/A% 29.75 in 2.8 mi West 6.9 mph - N/A Rain Rain
4:00 AM 44 °F - - %  in 3 mi West 6.9 mph - - Rain Heavy Rain
4:00 AM 44.6 °F 40.7 °F - N/A% 29.75 in 2.6 mi West 6.9 mph - N/A Rain Rain
4:13 AM 42.8 °F 36.2 °F - N/A% 29.76 in 5.0 mi WNW 12.7 mph - N/A Rain Light Rain
4:59 AM 41.0 °F 34.3 °F - N/A% 29.77 in 9.0 mi WNW 11.5 mph - N/A Rain Light Rain
5:00 AM 41.0 °F 34.3 °F - N/A% 29.77 in 9.0 mi WNW 11.5 mph - N/A Rain Light Rain
5:04 AM 41.0 °F 34.3 °F - N/A% 29.78 in 9.0 mi NW 11.5 mph - N/A Rain Light Rain
5:14 AM 41.0 °F 33.5 °F - N/A% 29.78 in 9.0 mi WNW 13.8 mph - N/A Rain Light Rain
5:40 AM 41.0 °F 33.9 °F - N/A% 29.79 in 6.0 mi WNW 12.7 mph - N/A Rain Light Rain
5:45 AM 41.0 °F 33.9 °F - N/A% 29.80 in 8.0 mi NW 12.7 mph - N/A Rain Light Rain
5:55 AM 39.2 °F 31.6 °F - N/A% 29.80 in 9.0 mi WNW 12.7 mph - N/A Rain Light Rain
6:00 AM 39.2 °F 32.5 °F - N/A% 29.80 in 9.0 mi WNW 10.4 mph - N/A Rain Light Rain
6:01 AM 39.2 °F 32.5 °F - N/A% 29.80 in 9.0 mi WNW 10.4 mph - N/A Rain Light Rain
6:12 AM 39.2 °F 31.2 °F - N/A% 29.80 in 9.0 mi NW 13.8 mph - N/A Rain Light Rain
6:15 AM 39.2 °F 31.2 °F - N/A% 29.80 in 9.0 mi NW 13.8 mph - N/A   Overcast
6:20 AM 39.2 °F 31.6 °F - N/A% 29.81 in 9.0 mi NW 12.7 mph - N/A Rain Light Rain
6:24 AM 39.2 °F 31.2 °F - N/A% 29.81 in 9.0 mi NW 13.8 mph - N/A Rain Light Rain
6:27 AM 39.2 °F 31.2 °F - N/A% 29.81 in 9.0 mi NW 13.8 mph - N/A Rain Light Rain
6:43 AM 39.2 °F 32.0 °F - N/A% 29.82 in 9.0 mi NW 11.5 mph - N/A   Overcast
6:45 AM 39.2 °F 32.0 °F - N/A% 29.82 in 9.0 mi NNW 11.5 mph - N/A   Overcast
7:00 AM 39 °F - - %  in 9 mi NW 11.5 mph - -   Overcast
7:00 AM 39.2 °F 32.0 °F - N/A% 29.82 in 9.0 mi NW 11.5 mph - N/A   Overcast
7:04 AM 39.2 °F 32.5 °F - N/A% 29.83 in 9.0 mi NNW 10.4 mph - N/A   Overcast
8:00 AM 39.2 °F 33.0 °F - N/A% 29.86 in 9.0 mi NNW 9.2 mph - N/A   Overcast
9:00 AM 41.0 °F 34.7 °F - N/A% 29.87 in 9.0 mi North 10.4 mph - N/A   Overcast
9:10 AM 41.0 °F 35.2 °F - N/A% 29.86 in 9.0 mi North 9.2 mph - N/A   Overcast
9:17 AM 41.0 °F 34.3 °F - N/A% 29.86 in 9.0 mi North 11.5 mph - N/A   Overcast
10:00 AM 42 °F - - % 29.89 in 9 mi NNE 11.5 mph - -   Overcast
10:00 AM 41.0 °F 34.3 °F - N/A% 29.89 in 9.0 mi NNE 11.5 mph - N/A   Overcast
1:11 PM 42.8 °F 35.8 °F - N/A% 29.92 in 9.0 mi NE 13.8 mph - N/A   Mostly Cloudy
1:51 PM 42.8 °F 37.0 °F - N/A% 29.94 in 9.0 mi ENE 10.4 mph - N/A   Overcast
1:56 PM 42.8 °F 37.0 °F - N/A% 29.94 in 9.0 mi East 10.4 mph - N/A   Overcast
2:38 PM 41.0 °F 34.7 °F - N/A% 29.96 in 9.0 mi NE 10.4 mph - N/A   Overcast
2:43 PM 41.0 °F 33.9 °F - N/A% 29.96 in 9.0 mi NE 12.7 mph - N/A   Overcast
3:00 PM 41.0 °F 35.8 °F - N/A% 29.98 in 9.0 mi NE 8.1 mph - N/A   Overcast
3:27 PM 41.0 °F 34.7 °F - N/A% 29.97 in 9.0 mi NNE 10.4 mph - N/A   Overcast
4:00 PM 41 °F - - % 30.00 in 9 mi NNE 10.4 mph - -  
4:00 PM 41.0 °F 34.7 °F - N/A% 30.00 in 9.0 mi NNE 10.4 mph - N/A   Mostly Cloudy
4:08 PM 41.0 °F 35.2 °F - N/A% 29.98 in 9.0 mi NNE 9.2 mph - N/A   Mostly Cloudy
4:50 PM 41.0 °F 34.3 °F - N/A% 29.99 in 9.0 mi NNE 11.5 mph - N/A   Scattered Clouds
4:55 PM 41.0 °F 34.3 °F - N/A% 30.00 in 9.0 mi NE 11.5 mph - N/A   Mostly Cloudy
5:00 PM 41.0 °F 34.7 °F - N/A% 30.01 in 9.0 mi NE 10.4 mph - N/A   Overcast
5:32 PM 41.0 °F 35.8 °F - N/A% 30.01 in 9.0 mi ENE 8.1 mph - N/A   Scattered Clouds
6:00 PM 41.0 °F 35.8 °F - N/A% 30.03 in 9.0 mi East 8.1 mph - N/A   Clear
7:00 PM 40 °F - - % 30.04 in 9 mi East 8.1 mph - -  
7:00 PM 41.0 °F 35.2 °F - N/A% 30.04 in 9.0 mi East 9.2 mph - N/A   Clear
8:00 PM 39.2 °F 34.2 °F - N/A% 30.05 in 9.0 mi East 6.9 mph - N/A   Clear
9:00 PM 37.4 °F 30.8 °F - N/A% 30.06 in 9.0 mi East 9.2 mph - N/A   Clear
10:00 PM 35 °F - - % 30.08 in 9 mi East 8.1 mph - -  
10:00 PM 35.6 °F 29.9 °F - N/A% 30.08 in 9.0 mi East 6.9 mph - N/A   Clear
10:43 PM 35.6 °F 28.0 °F - N/A% 30.07 in 9.0 mi East 10.4 mph - N/A   Mostly Cloudy
11:00 PM 33.8 °F 24.8 °F - N/A% 30.07 in 9.0 mi East 12.7 mph - N/A   Overcast
11:19 PM 33.8 °F 25.3 °F - N/A% 30.08 in 9.0 mi East 11.5 mph - N/A   Partly Cloudy